Tracking 25648 objects as of 16-May-2022
HD Live streaming from Space Station
objects crossing your sky now

COSMOS 2251 DEB

Track COSMOS 2251 DEB now!
10-day predictions


NORAD ID: 34327
Int'l Code: 1993-036NZ
Perigee: 659.9 km
Apogee: 735.1 km
Inclination: 74.0 °
Period: 98.6 minutes
Semi major axis: 7068 km
RCS: 0.0428 m2 (small)
Launch date: June 16, 1993
Source: Commonwealth of Independent States (former USSR) (CIS)
Launch site: PLESETSK MISSILE AND SPACE COMPLEX (PKMTR)

Note: This is SATELLITE DEBRIS
aabbcc
Your satellite tracking list
Your tracking list is empty




NASA's NSSDC Master Catalog

Two Line Element Set (TLE):
1 34327U 93036NZ  22135.63226656  .00003407  00000-0  68865-3 0  9999
2 34327  74.0081 197.3393 0053156 335.6879 140.9387 14.60876068703072
Source of the keplerian elements: AFSPC